This demonstration page uses our WeatherBlox Daily Observations layout. Learn more.

36.17497, -115.13722

Hourly Observations for December 12, 2019

Temp ( °F °C ) Dew Point ( °F °C ) Humidity (%) Winds ( mph kmh ) Pressure ( in mb ) Visibility ( mi km ) Precip ( " mm )
12:53 am 00:53 Clear 43 6.1 34 1.1 71 71 NW 3 6 30.27 1025 10 16.09344 0 0
1:53 am 01:53 Clear 43 6.1 34 1.1 71 71 WNW 3 6 30.27 1025 10 16.09344 0 0
2:53 am 02:53 Clear 45 7.2 33 0.6 63 63 NW 5 7 30.27 1025 10 16.09344 0 0
3:53 am 03:53 Clear 45 7.2 34 1.1 66 66 SW 3 6 30.27 1025 10 16.09344 0 0
4:53 am 04:53 Clear 44 6.7 34 1.1 68 68 SW 5 7 30.27 1025 10 16.09344 0 0
5:53 am 05:53 Clear 43 6.1 34 1.1 71 71 Calm 30.3 1026 10 16.09344 0 0
6:53 am 06:53 Sunny 42 5.6 34 1.1 73 73 NW 5 7 30.33 1027 10 16.09344 0 0
7:53 am 07:53 Sunny 46 7.8 35 1.7 66 66 W 5 7 30.33 1027 10 16.09344 0 0
8:53 am 08:53 Sunny 50 10 37 2.8 61 61 Calm 30.33 1027 10 16.09344 0 0
9:53 am 09:53 Sunny 52 11.1 36 2.2 55 55 SSE 5 7 30.36 1028 10 16.09344 0 0
10:53 am 10:53 Sunny 54 12.2 35 1.7 49 49 Calm 30.33 1027 10 16.09344 0 0
11:53 am 11:53 Sunny 56 13.3 34 1.1 44 44 Calm 30.3 1026 10 16.09344 0 0
12:53 pm 12:53 Sunny 57 13.9 34 1.1 42 42 SE 3 6 30.27 1025 10 16.09344 0 0
1:53 pm 13:53 Sunny 57 13.9 34 1.1 42 42 ESE 3 6 30.24 1024 10 16.09344 0 0
2:53 pm 14:53 Sunny 58 14.4 34 1.1 41 41 ENE 3 6 30.24 1024 10 16.09344 0 0
3:53 pm 15:53 Sunny 57 13.9 34 1.1 42 42 Calm 30.27 1025 10 16.09344 0 0
4:53 pm 16:53 Clear 56 13.3 34 1.1 44 44 Calm 30.27 1025 10 16.09344 0 0
5:53 pm 17:53 Clear 52 11.1 36 2.2 55 55 S 5 7 30.24 1024 10 16.09344 0 0
6:53 pm 18:53 Clear 51 10.6 36 2.2 56 56 Calm 30.27 1025 10 16.09344 0 0
7:53 pm 19:53 Clear 49 9.4 36 2.2 61 61 WNW 5 7 30.27 1025 10 16.09344 0 0
8:53 pm 20:53 Clear 48 8.9 37 2.8 66 66 WNW 5 7 30.27 1025 10 16.09344 0 0
9:53 pm 21:53 Clear 47 8.3 36 2.2 66 66 W 3 6 30.27 1025 10 16.09344 0 0
10:53 pm 22:53 Clear 46 7.8 36 2.2 68 68 W 5 7 30.27 1025 10 16.09344 0 0
11:53 pm 23:53 Clear 44 6.7 36 2.2 73 73 ESE 3 6 30.24 1024 10 16.09344 0 0

Powered by AerisWeather